Change the Weather History Date:

Sunday, July 28, 2013

  Actual Average Record
Temperature  
Mean Temperature 68 °F 68 °F  
Max Temperature 87 °F 88 °F 101 °F (1968)
Min Temperature 49 °F 48 °F 38 °F (1959)
Degree Days  
Heating Degree Days 0 1  
Month to date heating degree days 3 54  
Since 1 June heating degree days 191 272  
Since 1 July heating degree days 3 54  
Cooling Degree Days 3 4  
Month to date cooling degree days 215 94  
Year to date cooling degree days 270 117  
Since 1 June cooling degree days 269 114  
Growing Degree Days 18 (Base 50)    
Moisture  
Dew Point 22 °F    
Average Humidity 24    
Maximum Humidity 41    
Minimum Humidity 6    
Precipitation  
Precipitation 0.00 in 0.01 in 0.35 in (1941)
Month to date precipitation T 0.36  
Year to date precipitation 3.41 6.58  
Sea Level Pressure  
Sea Level Pressure 29.85 in    
Wind  
Wind Speed 9 mph (WSW)    
Max Wind Speed 22 mph    
Max Gust Speed 29 mph    
Visibility 10 miles    
Events      
T = Trace of Precipitation, MM = Missing Value Source: NWS Daily Summary

Daily Weather History Graph

Daily Weather History Graph

Search for Another Location

Airport or City:

Trip Planner

Search our weather history database for the weather conditions in past years. The results will help you decide how hot, cold, wet, or windy it might be!

Date:

Astronomy

Jul. 28, 2013 Rise Set
Actual Time 5:41 AM PDT 8:22 PM PDT
Civil Twilight 5:08 AM PDT 8:55 PM PDT
Nautical Twilight 4:26 AM PDT 9:37 PM PDT
Astronomical Twilight 3:38 AM PDT 10:24 PM PDT
Moon 11:31 PM PDT (7/28) 12:43 PM PDT (7/28)
Length of Visible Light 15h 47m
Length of Day
14h 41m
Waning Gibbous, 60% of the Moon is Illuminated
Jul 28
Waning Gibbous
Jul 29
Last Quarter
Aug 6
New
Aug 14
First Quarter
Aug 20
Full

Hourly Weather History & Observations

Time (PDT) Temp. Dew Point Humidity Pressure Visibility Wind Dir Wind Speed Gust Speed Precip Events Conditions
12:53 AM 55.0 °F 21.0 °F 27% 29.87 in 10.0 mi WSW 6.9 mph - N/A   Clear
1:53 AM 57.9 °F 23.0 °F 26% 29.87 in 10.0 mi West 5.8 mph - N/A   Clear
2:53 AM 51.1 °F 25.0 °F 36% 29.88 in 10.0 mi West 3.5 mph - N/A   Clear
3:53 AM 54.0 °F 25.0 °F 33% 29.88 in 10.0 mi WNW 12.7 mph - N/A   Clear
4:53 AM 51.1 °F 26.1 °F 38% 29.88 in 10.0 mi West 10.4 mph - N/A   Clear
5:53 AM 50.0 °F 27.0 °F 41% 29.88 in 10.0 mi West 5.8 mph - N/A   Overcast
6:53 AM 52.0 °F 28.9 °F 41% 29.90 in 10.0 mi Calm Calm - N/A   Mostly Cloudy
7:53 AM 60.1 °F 28.0 °F 30% 29.90 in 10.0 mi Calm Calm - N/A   Clear
8:53 AM 66.9 °F 28.9 °F 24% 29.91 in 10.0 mi Calm Calm - N/A   Clear
9:53 AM 72.0 °F 30.0 °F 21% 29.89 in 10.0 mi South 5.8 mph - N/A   Clear
10:53 AM 78.1 °F 21.0 °F 12% 29.89 in 10.0 mi WSW 6.9 mph - N/A   Clear
11:53 AM 80.1 °F 25.0 °F 13% 29.86 in 10.0 mi South 10.4 mph - N/A   Clear
12:53 PM 82.9 °F 18.0 °F 9% 29.85 in 10.0 mi South 12.7 mph 17.3 mph N/A   Clear
1:53 PM 84.0 °F 14.0 °F 7% 29.83 in 10.0 mi SSW 17.3 mph 21.9 mph N/A   Clear
2:53 PM 86.0 °F 10.0 °F 6% 29.82 in 10.0 mi SW 18.4 mph 26.5 mph N/A   Clear
3:53 PM 86.0 °F 10.0 °F 6% 29.80 in 10.0 mi SW 11.5 mph 25.3 mph N/A   Clear
4:53 PM 86.0 °F 12.9 °F 7% 29.80 in 10.0 mi West 13.8 mph - N/A   Clear
5:53 PM 84.9 °F 12.9 °F 7% 29.80 in 10.0 mi West 15.0 mph 20.7 mph N/A   Clear
6:53 PM 82.0 °F 16.0 °F 8% 29.80 in 10.0 mi West 11.5 mph - N/A   Clear
7:53 PM 73.9 °F 21.9 °F 14% 29.81 in 10.0 mi West 5.8 mph - N/A   Clear
8:53 PM 64.0 °F 25.0 °F 23% 29.82 in 10.0 mi NNW 9.2 mph - N/A   Clear
9:53 PM 62.1 °F 21.9 °F 21% 29.84 in 10.0 mi NW 4.6 mph - N/A   Clear
10:53 PM 55.9 °F 23.0 °F 28% 29.85 in 10.0 mi West 10.4 mph - N/A   Clear
11:53 PM 55.0 °F 26.1 °F 33% 29.85 in 10.0 mi West 10.4 mph - N/A   Clear